Regional Weather Roundup
Issued by NWS State College, PA

Home | Current Version | Previous Version | Text Only | Print | Product List | Glossary Off
Versions: 1 2 3 4 5 6 7 8 9 10 11 12 13 14 15 16 17 18 19 20 21 22 23 24 25 26 27 28 29 30 31 32 33 34 35 36 37 38 39 40 41 42 43 44 45 46 47 48 49 50

000
ASUS41 KCTP 261610
RWRCTP

REGIONAL WEATHER ROUNDUP
NATIONAL WEATHER SERVICE STATE COLLEGE PA
1100 AM EST MON JAN 26 2015

Note: "fair" indicates few or no clouds below 12,000 feet with no
significant weather and/or obstructions to visibility.

* = STATION THAT DOES NOT REPORT PRECIPITATION /E.G. RAIN...SNOW...ETC/
    THUNDER OR FOG.

PAZ002>004-007>009-013>016-020>023-029>032-261700-
WESTERN PENNSYLVANIA

CITY           SKY/WX    TMP DP  RH WIND       PRES   REMARKS
ERIE           LGT SNOW  19  14  81 NE13      29.86R WCI   6
MEADVILLE      LGT SNOW  20  14  77 NE10      29.77R VSB 1   WCI   9
FRANKLIN*      CLOUDY    19  12  73 NE9       29.76S WCI   9
NEW CASTLE     SNOW      22  19  88 N8        29.78R VSB 1/2 WCI  13
BEAVER COUNTY  LGT SNOW  25  21  86 N9        29.73R
BUTLER*        CLOUDY    23  19  86 NE10      29.74S VSB 3/4 WCI  12
PITTSBURGH INT SNOW      26  23  88 N9        29.71S VSB 1/2
PITTSBURGH     SNOW      28  25  88 N5        29.69S VSB 1/4
INDIANA*       FOG       23  21  93 E8        29.76S VSB 1   WCI  14
LATROBE        LGT SNOW  30  28  93 E6        29.72R VSB 1
WASHINGTON CO* CLOUDY    28  25  86 CALM      29.71R
$$

PAZ004>006-010>012-017>019-024>028-033>037-041-042-045-046-049>053-261700-
CENTRAL PENNSYLVANIA

CITY           SKY/WX    TMP DP  RH WIND       PRES   REMARKS
BRADFORD       SNOW      15  10  80 E9        29.74S VSB 1/2 WCI   3
DUBOIS         SNOW      20  16  84 E9        29.72R VSB 1/2 WCI   9
CLEARFIELD     SNOW      18  14  84 NE7       29.78S VSB 1/2 WCI   9
JOHNSTOWN      LGT SNOW  22  19  89 CALM      29.67R VSB 3/4
ALTOONA        LGT SNOW  20  18  92 N8        29.77S FOG     WCI  10
STATE COLLEGE  LGT SNOW  16  14  93 NE8       29.81S WCI   5
WILLIAMSPORT   LGT SNOW  21  17  84 E7        29.89F VSB 3/4 WCI  12
SELINSGROVE    LGT SNOW  23  18  81 NE5       29.89F
FT INDIANTOWN  CLOUDY    22  15  75 E16       29.88F WCI   8
CAPITAL CITY   CLOUDY    24  18  77 E12       29.88S WCI  13
HARRISBURG     CLOUDY    24  18  77 NE9       29.87F WCI  14
YORK           CLOUDY    26  21  81 NE12      29.85R HAZE
$$

PAZ038>040-043-044-047-048-054-055-060>062-067>071-261700-
EASTERN PENNSYLVANIA

CITY           SKY/WX    TMP DP  RH WIND       PRES   REMARKS
SCRANTON       LGT SNOW  21  12  68 E13G20    29.88F WCI   9
MOUNT POCONO   LGT SNOW  14   9  80 E16G22    29.83S WCI  -2
ALLENTOWN      LGT SNOW  19  12  73 NE16      29.92F WCI   5
QUAKERTOWN*    NOT AVBL
READING        LGT SNOW  21  16  81 NE12      29.89F WCI   9
LANCASTER      LGT SNOW  23  18  81 E14       29.86F WCI  11
COATESVILLE    LGT SNOW  25  23  93 NE7       29.84F
POTTSTOWN      LGT SNOW  22  17  81 NE12      29.90F WCI  10
BLUE BELL      CLOUDY    28  21  74 E10G17    29.88F
DOYLESTOWN     LGT SNOW  22  19  89 NE12      29.89F FOG     WCI  10
WILLOW GROVE   NOT AVBL
NORTH PHILA    LGT SNOW  30  22  72 NE21      29.90F
PHILADELPHIA   LGT SNOW  29  24  82 NE16      29.87F
$$



USA.gov is the U.S. government's official web portal to all federal, state and local government web resources and services.